Regional Weather Roundup
Issued by NWS

Home | Current Version | Previous Version | Text Only | Print | Product List | Glossary On
Versions: 1 2 3 4 5 6 7 8 9 10 11 12 13 14 15 16 17 18 19 20 21 22 23 24 25 26 27
000
ASUS42 KKEY 011010
RWRKEY

FLORIDA REGIONAL WEATHER ROUNDUP FOR THE FLORIDA KEYS
NATIONAL WEATHER SERVICE KEY WEST FLORIDA
600 AM EDT SUN MAY 01 2016

...SOUTH FLORIDA AND THE KEYS...

CITY           SKY/WX    TMP DP  RH WIND       PRES   REMARKS
FORT MYERS     CLEAR     69  67  93 E6        29.98S
SW REGIONAL AP CLEAR     69  65  86 E9        29.98F
NAPLES         CLEAR     70  68  93 E7        29.97S
MIAMI          MOCLDY    77  69  76 E12       29.99S
WEST KENDALL   CLOUDY    76  68  76 E13G20    29.98S
HOMESTEAD      PTCLDY    77  69  76 E12       29.98S
MARATHON       PTCLDY    78  70  76 E9        29.95F
BOCA CHICA NAS CLOUDY    78  69  73 E13       29.95F
KEY WEST INTL  CLOUDY    78  71  79 E16       29.96S

...INTERNATIONAL WEATHER...

CITY           SKY/WX    TMP DP  RH WIND       PRES   REMARKS
NASSAU BAHAMAS PTCLDY    79  66  65 E5        30.00R
CANCUN MEXICO  PTCLDY    81  75  83 E13       29.83R
COZUMEL MEXICO PTCLDY    75  75 100 E14       29.81

ADJACENT COASTAL WATERS...

STATION/POSITION TIME  SKY/WX   TEMP    WIND        PRES    WAVE
                                AIR SEA DIR/SP/G            HT/PER
                 (UTC)          (F)     (DEG/KT/KT) (MB)    (FT/S)
PULASKI SHOAL LI 1000            78     120/ 14/ 15 1013.9R
SAND KEY         0950            79     130/ 17/ 19 1014.5F
SOMBRERO KEY     NOT AVBL
LONG KEY         1000            79 80  120/ 15/ 17 1014.9S
MOLASSES REEF    NOT AVBL
FOWEY ROCKS      NOT AVBL

$$




USA.gov is the U.S. government's official web portal to all federal, state and local government web resources and services.